This is the latest recevied weather packets stored in our database for station/object HS3UAA-1. If no packets are shown the sender has not sent any weather packets the latest 10 day(s).
| Time | Temp. | Humidity | Pressure | Rain* | Wind** | Luminosity | Snow |
|---|---|---|---|---|---|---|---|
| 1777918216 | 32.78° C | 48% | 997 hPa | - | - | 0 W/m² | - |
| 1777917894 | 32.22° C | 50% | 997 hPa | - | - | 0 W/m² | - |
| 1777917572 | 32.78° C | 48% | 998 hPa | - | - | 0 W/m² | - |
| 1777917250 | 32.22° C | 50% | 998 hPa | - | - | 0 W/m² | - |
| 1777916928 | 32.78° C | 49% | 998 hPa | - | - | 0 W/m² | - |
| 1777916606 | 32.78° C | 48% | 998 hPa | - | - | 0 W/m² | - |
| 1777916284 | 33.33° C | 47% | 998 hPa | - | - | 0 W/m² | - |
| 1777915962 | 33.33° C | 48% | 998 hPa | - | - | 0 W/m² | - |
| 1777915640 | 32.78° C | 49% | 998 hPa | - | - | 0 W/m² | - |
| 1777915318 | 32.78° C | 49% | 998 hPa | - | - | 0 W/m² | - |
| 1777914995 | 32.78° C | 48% | 998 hPa | - | - | 0 W/m² | - |
| 1777914674 | 32.78° C | 49% | 999 hPa | - | - | 0 W/m² | - |
| 1777914351 | 32.78° C | 48% | 999 hPa | - | - | 0 W/m² | - |
| 1777914029 | 32.22° C | 51% | 999 hPa | - | - | 0 W/m² | - |
| 1777913707 | 32.78° C | 49% | 1000 hPa | - | - | 0 W/m² | - |
| 1777913385 | 32.22° C | 50% | 999 hPa | - | - | 0 W/m² | - |
| 1777913063 | 33.33° C | 48% | 999 hPa | - | - | 0 W/m² | - |
| 1777912741 | 32.78° C | 49% | 999 hPa | - | - | 0 W/m² | - |
| 1777912419 | 32.22° C | 50% | 999 hPa | - | - | 0 W/m² | - |
| 1777912097 | 32.78° C | 49% | 999 hPa | - | - | 0 W/m² | - |
| 1777911775 | 32.22° C | 50% | 999 hPa | - | - | 0 W/m² | - |
| 1777911453 | 32.78° C | 49% | 999 hPa | - | - | 0 W/m² | - |
| 1777911131 | 32.78° C | 49% | 999 hPa | - | - | 0 W/m² | - |
| 1777910809 | 32.78° C | 49% | 999 hPa | - | - | 0 W/m² | - |
| 1777910487 | 33.33° C | 47% | 999 hPa | - | - | 0 W/m² | - |
* Rain since midnight (hover to see other rain measurements)
** Current wind speed in m/s (hover to see current wind gust speed)